Location: Albany
(35.0000°S, 118.0000°E)
Time: 13:55:58
(UTC-04:00)

ADEOS Rocket - Visible Passes

Search period start: 26 July 2016 00:00
Search period end: 05 August 2016 00:00
Orbit: 858 x 1308 km, 98.7° (Epoch: 24 July)

Date Brightness Start Highest point End Pass type
(mag) Time Alt. Az. Time Alt. Az. Time Alt. Az.
26 Jul 5.3 16:45:02 10° NNW 16:46:10 15° NNW 16:46:10 15° NNW visible
27 Jul 5.2 05:48:07 10° SSW 05:53:22 25° WSW 05:58:12 10° WNW visible
27 Jul 5.4 15:55:14 10° N 15:56:36 17° N 15:56:36 17° N visible
28 Jul 5.9 15:06:57 10° NE 15:07:03 10° NE 15:07:03 10° NE visible
28 Jul 5.3 16:53:08 10° NNW 16:54:00 13° NNW 16:54:00 13° NNW visible
29 Jul 5.4 05:56:13 10° SSW 06:00:54 21° WSW 06:05:17 10° WNW visible
29 Jul 5.3 16:03:02 10° N 16:04:27 17° N 16:04:27 17° N visible
30 Jul 5.8 15:14:30 10° NNE 15:14:53 12° NNE 15:14:53 12° NNE visible
30 Jul 5.4 17:01:20 10° NNW 17:01:50 12° NNW 17:01:50 12° NNW visible
31 Jul 5.6 06:04:23 10° SSW 06:08:26 18° WSW 06:12:14 10° W visible
31 Jul 5.3 16:10:54 10° N 16:12:17 16° N 16:12:17 16° N visible
01 Aug 5.7 15:22:06 10° NNE 15:22:42 13° NNE 15:22:42 13° NNE visible
01 Aug 5.5 17:09:39 10° NW 17:09:40 10° NW 17:09:40 10° NW visible
02 Aug 5.6 06:12:42 10° SSW 06:15:57 15° WSW 06:19:02 10° W visible
02 Aug 5.3 16:18:49 10° N 16:20:05 16° N 16:20:05 16° N visible
03 Aug 5.6 15:29:45 10° NNE 15:30:31 13° NNE 15:30:31 13° NNE visible
04 Aug 5.7 06:21:19 10° SW 06:23:26 12° WSW 06:25:30 10° WSW visible
04 Aug 5.3 16:26:47 10° N 16:27:54 15° NNW 16:27:54 15° NNW visible
